GFSGL_sfc_vis_024.txt.gz
Visibility
15.0 15.0 15.0 13.8 15.0 15.0 7.7 14.8 15.0 15.0 15.0 12.7 13.2 8.3 10.3 15.0 15.0 15.0 4.2 4.2 15.0 7.5 15.0 6.8 15.0 15.0 11.4 15.0 8.0 10.5 15.0 10.8 1.7 0.1 1.7 1.7 4.6 5.2 3.9 5.4 4.2 5.6 6.1
15.0 15.0 15.0 13.4 15.0 5.7 7.7 7.0 15.0 15.0 15.0 15.0 15.0 14.8 15.0 15.0 15.0 15.0 15.0 6.2 9.2 15.0 15.0 15.0 9.9 14.6 15.0 12.3 15.0 15.0 15.0 14.5 13.5 0.1 0.3 0.5 0.6 4.8 5.2 0.5 5.6 7.5 9.3
15.0 15.0 15.0 15.0 8.6 6.6 8.2 5.1 15.0 15.0 15.0 15.0 15.0 11.2 15.0 15.0 15.0 15.0 15.0 15.0 15.0 15.0 15.0 15.0 15.0 13.2 12.6 15.0 11.7 5.5 4.2 15.0 13.6 14.8 0.1 5.2 0.4 1.8 0.5 5.4 3.2 9.0 12.6
15.0 15.0 15.0 7.9 15.0 15.0 10.5 5.2 14.2 15.0 15.0 15.0 15.0 15.0 15.0 15.0 15.0 15.0 15.0 15.0 15.0 13.2 14.6 15.0 15.0 15.0 15.0 15.0 9.0 10.6 8.5 9.7 15.0 12.3 7.9 0.2 2.8 0.4 6.1 0.2 0.5 10.4 15.0
15.0 15.0 15.0 11.3 15.0 11.9 15.0 15.0 15.0 6.7 15.0 15.0 15.0 15.0 15.0 15.0 15.0 15.0 15.0 15.0 15.0 13.0 4.7 3.0 4.3 9.7 5.3 9.1 13.7 5.0 12.8 15.0 13.2 15.0 8.3 4.1 0.1 0.3 0.8 8.0 15.0 15.0 15.0
15.0 15.0 15.0 13.8 15.0 5.9 15.0 15.0 12.5 15.0 15.0 15.0 15.0 15.0 15.0 15.0 5.2 15.0 15.0 15.0 15.0 15.0 15.0 15.0 15.0 11.2 0.1 0.6 15.0 14.8 14.8 15.0 14.4 15.0 15.0 10.4 1.0 9.0 11.1 14.9 15.0 15.0 15.0
15.0 15.0 15.0 15.0 15.0 11.1 15.0 11.9 15.0 15.0 10.0 13.0 6.0 15.0 15.0 15.0 15.0 15.0 15.0 15.0 15.0 14.6 15.0 15.0 15.0 15.0 14.3 12.6 0.2 4.7 0.3 5.9 11.7 14.9 13.1 12.6 12.1 9.7 15.0 15.0 15.0 15.0 15.0
15.0 15.0 15.0 15.0 15.0 15.0 6.5 12.7 10.6 12.8 14.0 15.0 15.0 15.0 15.0 14.0 0.2 1.9 14.0 15.0 15.0 5.4 15.0 5.8 10.7 10.0 6.8 12.9 15.0 15.0 14.9 15.0 7.2 6.0 9.0 6.1 5.4 7.5 15.0 15.0 15.0 15.0 15.0
15.0 15.0 15.0 15.0 15.0 14.1 15.0 15.0 5.9 15.0 15.0 15.0 15.0 15.0 15.0 14.8 0.0 0.0 0.1 15.0 15.0 15.0 4.7 12.5 15.0 15.0 0.1 15.0 15.0 15.0 15.0 13.5 0.2 0.2 0.1 0.3 0.1 5.5 15.0 15.0 15.0 15.0 15.0
15.0 15.0 15.0 15.0 15.0 15.0 15.0 15.0 15.0 5.9 13.1 15.0 15.0 15.0 0.4 0.1 0.0 0.0 0.1 15.0 15.0 14.9 5.5 14.3 0.2 13.7 0.4 15.0 15.0 14.8 15.0 15.0 15.0 11.2 9.1 1.4 15.0 2.6 15.0 15.0 15.0 15.0 15.0
15.0 15.0 15.0 15.0 15.0 15.0 15.0 15.0 15.0 14.2 13.9 15.0 15.0 14.0 14.8 4.8 0.1 0.0 0.1 15.0 15.0 15.0 15.0 15.0 15.0 0.0 0.3 15.0 9.1 15.0 15.0 15.0 15.0 15.0 15.0 15.0 15.0 15.0 15.0 11.4 15.0 15.0 15.0
15.0 15.0 15.0 15.0 15.0 15.0 15.0 15.0 15.0 15.0 12.0 15.0 15.0 15.0 15.0 15.0 0.5 0.0 0.0 2.2 15.0 14.3 15.0 15.0 8.1 0.0 0.2 15.0 15.0 12.0 15.0 15.0 15.0 15.0 15.0 15.0 15.0 15.0 15.0 15.0 15.0 15.0 15.0
15.0 15.0 15.0 15.0 15.0 15.0 15.0 15.0 15.0 14.4 15.0 15.0 14.8 13.9 14.2 8.4 14.5 0.1 0.0 0.0 0.1 5.6 6.9 1.4 0.0 0.0 0.2 15.0 15.0 15.0 1.7 15.0 15.0 15.0 15.0 15.0 15.0 15.0 15.0 15.0 15.0 15.0 15.0
15.0 15.0 15.0 15.0 15.0 15.0 15.0 15.0 15.0 15.0 15.0 15.0 15.0 15.0 15.0 15.0 15.0 15.0 15.0 13.3 1.2 15.0 2.4 2.6 15.0 2.1 0.1 9.3 8.5 2.5 15.0 15.0 15.0 15.0 15.0 15.0 15.0 15.0 15.0 15.0 15.0 15.0 15.0
15.0 15.0 15.0 15.0 15.0 15.0 15.0 15.0 15.0 15.0 15.0 15.0 15.0 15.0 15.0 15.0 15.0 15.0 15.0 15.0 15.0 10.4 15.0 15.0 15.0 15.0 15.0 15.0 15.0 15.0 15.0 15.0 15.0 15.0 15.0 15.0 15.0 15.0 15.0 15.0 15.0 15.0 15.0
15.0 15.0 15.0 15.0 15.0 15.0 15.0 15.0 0.1 7.2 15.0 15.0 15.0 15.0 10.2 15.0 15.0 15.0 15.0 15.0 15.0 15.0 15.0 15.0 15.0 15.0 15.0 15.0 15.0 15.0 15.0 15.0 15.0 15.0 15.0 15.0 15.0 15.0 15.0 15.0 15.0 15.0 15.0
15.0 15.0 15.0 15.0 15.0 15.0 15.0 15.0 15.0 0.1 11.1 15.0 15.0 15.0 15.0 15.0 15.0 15.0 15.0 15.0 15.0 0.1 15.0 15.0 15.0 15.0 15.0 15.0 15.0 15.0 15.0 15.0 15.0 15.0 15.0 15.0 15.0 15.0 15.0 15.0 15.0 15.0 15.0
15.0 15.0 15.0 15.0 15.0 15.0 15.0 15.0 15.0 15.0 15.0 15.0 0.1 2.1 0.4 15.0 15.0 15.0 15.0 15.0 10.5 7.4 15.0 15.0 15.0 15.0 15.0 15.0 15.0 15.0 15.0 15.0 15.0 15.0 15.0 15.0 15.0 15.0 15.0 15.0 15.0 15.0 15.0
15.0 15.0 15.0 15.0 15.0 15.0 15.0 15.0 15.0 15.0 15.0 15.0 15.0 0.2 0.2 9.1 15.0 15.0 8.6 15.0 15.0 15.0 15.0 15.0 15.0 15.0 15.0 15.0 15.0 15.0 15.0 15.0 15.0 15.0 15.0 15.0 15.0 15.0 15.0 15.0 15.0 15.0 15.0
15.0 15.0 15.0 15.0 15.0 15.0 15.0 15.0 15.0 15.0 15.0 15.0 15.0 15.0 15.0 11.6 15.0 15.0 15.0 15.0 15.0 15.0 15.0 15.0 15.0 15.0 15.0 15.0 15.0 15.0 15.0 15.0 15.0 15.0 15.0 15.0 15.0 15.0 15.0 15.0 15.0 15.0 15.0
15.0 15.0 15.0 15.0 15.0 15.0 15.0 15.0 15.0 15.0 15.0 15.0 15.0 15.0 15.0 15.0 15.0 15.0 15.0 15.0 15.0 15.0 15.0 15.0 15.0 15.0 15.0 15.0 15.0 15.0 15.0 15.0 15.0 15.0 15.0 15.0 15.0 15.0 15.0 15.0 15.0 15.0 15.0
15.0 15.0 15.0 15.0 15.0 15.0 15.0 15.0 15.0 15.0 15.0 15.0 15.0 15.0 15.0 15.0 15.0 15.0 15.0 15.0 15.0 15.0 15.0 15.0 15.0 15.0 15.0 15.0 15.0 15.0 15.0 15.0 15.0 15.0 15.0 15.0 15.0 15.0 15.0 15.0 15.0 15.0 15.0
15.0 15.0 15.0 15.0 15.0 15.0 15.0 15.0 15.0 15.0 15.0 15.0 15.0 15.0 15.0 15.0 15.0 15.0 15.0 15.0 15.0 15.0 15.0 15.0 15.0 15.0 15.0 15.0 15.0 15.0 15.0 15.0 15.0 15.0 15.0 15.0 15.0 15.0 15.0 15.0 15.0 15.0 15.0
15.0 15.0 15.0 15.0 15.0 15.0 15.0 15.0 15.0 15.0 15.0 15.0 15.0 15.0 15.0 15.0 15.0 15.0 15.0 15.0 15.0 15.0 15.0 15.0 15.0 15.0 15.0 15.0 15.0 15.0 15.0 15.0 15.0 15.0 15.0 15.0 15.0 15.0 15.0 15.0 15.0 15.0 15.0
15.0 15.0 15.0 15.0 15.0 15.0 15.0 15.0 15.0 15.0 15.0 15.0 15.0 15.0 15.0 15.0 15.0 15.0 15.0 15.0 15.0 15.0 15.0 15.0 15.0 15.0 15.0 15.0 15.0 15.0 15.0 15.0 15.0 15.0 15.0 15.0 15.0 15.0 15.0 15.0 15.0 15.0 15.0
15.0 15.0 15.0 15.0 15.0 15.0 15.0 15.0 15.0 15.0 15.0 15.0 15.0 15.0 15.0 15.0 15.0 15.0 15.0 15.0 15.0 15.0 15.0 15.0 15.0 15.0 15.0 15.0 15.0 15.0 15.0 15.0 15.0 15.0 15.0 15.0 15.0 15.0 15.0 15.0 15.0 15.0 15.0

GFSGL_sfc_vis_027.txt.gz
Visibility
15.0 15.0 15.0 15.0 15.0 9.2 15.0 15.0 15.0 15.0 15.0 15.0 12.2 10.5 10.3 15.0 4.9 15.0 5.3 14.9 13.6 14.3 15.0 15.0 11.1 6.1 3.8 15.0 15.0 12.8 14.5 7.2 1.3 1.3 8.9 2.4 4.7 4.8 4.4 4.4 4.2 4.7 4.3
15.0 15.0 15.0 15.0 15.0 8.4 14.8 15.0 10.0 15.0 15.0 15.0 15.0 15.0 15.0 14.6 8.8 15.0 14.4 15.0 14.4 15.0 4.1 14.7 15.0 6.1 15.0 15.0 9.0 8.1 15.0 11.9 15.0 0.1 0.1 0.7 3.3 3.5 3.8 0.2 0.2 4.1 5.5
15.0 15.0 15.0 15.0 15.0 15.0 15.0 13.4 15.0 15.0 15.0 15.0 15.0 15.0 15.0 7.1 15.0 15.0 15.0 15.0 15.0 15.0 15.0 5.5 13.9 13.2 15.0 15.0 12.6 13.4 15.0 11.1 7.2 7.8 0.1 6.8 0.6 3.1 0.3 4.3 5.6 7.6 6.4
15.0 15.0 15.0 15.0 11.3 15.0 15.0 9.8 8.0 15.0 15.0 15.0 12.2 15.0 15.0 15.0 15.0 15.0 15.0 15.0 13.7 15.0 15.0 4.3 9.1 7.9 15.0 12.5 6.7 14.8 15.0 9.3 6.6 7.8 5.3 4.7 1.8 0.6 6.7 0.5 0.3 6.7 9.8
15.0 15.0 15.0 15.0 15.0 15.0 12.2 15.0 15.0 15.0 15.0 15.0 15.0 15.0 15.0 15.0 15.0 15.0 15.0 15.0 4.6 9.5 11.5 13.8 10.9 15.0 15.0 5.6 3.8 7.3 9.2 13.6 6.7 7.8 6.3 0.8 0.1 0.6 5.1 4.7 11.7 13.8 15.0
15.0 15.0 15.0 15.0 15.0 15.0 11.0 14.5 5.5 15.0 13.8 15.0 15.0 15.0 15.0 15.0 5.2 15.0 15.0 15.0 4.5 7.7 4.5 15.0 15.0 11.1 0.1 3.8 5.0 13.8 14.8 15.0 13.0 15.0 15.0 0.4 4.6 6.7 9.3 10.9 15.0 15.0 15.0
15.0 15.0 15.0 15.0 15.0 15.0 15.0 5.3 14.0 12.0 8.2 7.4 8.3 15.0 15.0 15.0 15.0 15.0 15.0 15.0 7.3 6.0 5.4 5.5 15.0 15.0 15.0 12.8 2.1 0.2 0.1 12.0 13.9 15.0 15.0 9.0 15.0 14.0 15.0 15.0 15.0 15.0 15.0
15.0 15.0 15.0 15.0 15.0 15.0 15.0 8.6 8.8 6.4 6.5 15.0 15.0 15.0 15.0 14.0 15.0 10.2 0.5 4.4 11.1 7.7 10.0 13.3 15.0 15.0 6.9 13.5 15.0 7.9 14.9 10.2 10.0 7.6 13.5 10.4 8.6 14.5 15.0 15.0 12.9 15.0 15.0
15.0 15.0 15.0 15.0 15.0 15.0 14.2 5.4 15.0 4.6 6.1 15.0 15.0 15.0 15.0 14.8 0.0 0.0 0.0 12.5 7.5 5.2 5.4 14.7 14.3 14.2 0.1 15.0 15.0 0.4 0.1 0.1 0.1 0.1 0.1 0.0 0.2 15.0 15.0 15.0 15.0 15.0 15.0
15.0 15.0 15.0 15.0 15.0 15.0 15.0 15.0 14.0 14.2 15.0 15.0 6.5 15.0 3.1 15.0 0.0 0.0 0.0 5.5 6.0 7.9 14.4 15.0 0.3 13.8 2.4 15.0 15.0 15.0 0.2 0.1 1.5 0.3 0.1 0.2 1.5 2.5 15.0 6.0 15.0 15.0 15.0
15.0 15.0 15.0 15.0 15.0 15.0 15.0 6.1 5.1 10.8 15.0 15.0 15.0 15.0 15.0 15.0 0.2 0.0 0.0 5.0 6.1 4.6 15.0 15.0 15.0 1.4 15.0 7.6 12.7 15.0 9.4 15.0 5.4 15.0 15.0 15.0 14.1 15.0 15.0 15.0 14.0 15.0 9.7
15.0 15.0 15.0 15.0 15.0 15.0 15.0 15.0 10.0 8.1 15.0 15.0 14.8 15.0 15.0 15.0 2.1 0.0 0.0 7.1 15.0 6.8 15.0 15.0 8.1 0.8 15.0 15.0 15.0 12.0 15.0 15.0 15.0 9.2 11.7 15.0 15.0 15.0 15.0 12.2 15.0 15.0 15.0
15.0 15.0 15.0 15.0 15.0 15.0 15.0 15.0 15.0 15.0 15.0 14.2 9.8 9.8 14.4 14.4 14.5 0.0 0.0 0.0 0.1 7.2 15.0 1.3 0.0 0.3 15.0 14.7 15.0 15.0 2.6 15.0 15.0 15.0 15.0 15.0 15.0 15.0 15.0 15.0 15.0 15.0 15.0
15.0 15.0 15.0 15.0 15.0 15.0 15.0 15.0 15.0 15.0 15.0 15.0 15.0 12.3 8.8 15.0 15.0 15.0 15.0 13.4 1.2 15.0 2.4 2.1 12.6 0.1 12.6 9.3 1.8 2.5 15.0 15.0 15.0 15.0 15.0 15.0 15.0 15.0 15.0 15.0 15.0 15.0 15.0
15.0 15.0 15.0 15.0 15.0 15.0 15.0 15.0 15.0 12.8 15.0 15.0 15.0 15.0 15.0 15.0 15.0 15.0 15.0 15.0 15.0 12.5 15.0 15.0 15.0 15.0 15.0 15.0 15.0 15.0 15.0 15.0 15.0 15.0 15.0 15.0 15.0 15.0 15.0 15.0 15.0 15.0 15.0
15.0 15.0 15.0 15.0 15.0 15.0 15.0 15.0 0.1 15.0 15.0 15.0 15.0 15.0 15.0 15.0 15.0 15.0 15.0 15.0 15.0 15.0 15.0 15.0 15.0 15.0 15.0 15.0 15.0 15.0 15.0 15.0 15.0 15.0 15.0 15.0 15.0 15.0 15.0 15.0 15.0 15.0 15.0
15.0 15.0 15.0 15.0 15.0 15.0 15.0 15.0 15.0 0.1 11.1 15.0 15.0 15.0 15.0 15.0 15.0 15.0 15.0 15.0 15.0 0.3 15.0 15.0 15.0 15.0 15.0 15.0 15.0 15.0 15.0 15.0 15.0 15.0 15.0 15.0 15.0 15.0 15.0 15.0 15.0 15.0 15.0
15.0 15.0 15.0 15.0 15.0 15.0 15.0 15.0 15.0 15.0 15.0 15.0 0.1 8.2 0.2 15.0 15.0 15.0 15.0 4.5 10.4 7.4 15.0 15.0 15.0 15.0 15.0 15.0 15.0 15.0 15.0 15.0 15.0 15.0 15.0 15.0 15.0 15.0 15.0 15.0 15.0 15.0 15.0
15.0 15.0 15.0 15.0 15.0 15.0 15.0 15.0 15.0 15.0 15.0 15.0 15.0 0.4 6.1 9.1 12.8 13.1 8.6 15.0 15.0 15.0 15.0 15.0 15.0 15.0 15.0 15.0 15.0 15.0 15.0 15.0 15.0 15.0 15.0 15.0 15.0 15.0 15.0 15.0 15.0 15.0 15.0
15.0 15.0 15.0 15.0 15.0 15.0 15.0 15.0 15.0 15.0 15.0 15.0 15.0 15.0 15.0 15.0 15.0 15.0 15.0 15.0 15.0 15.0 15.0 15.0 15.0 15.0 15.0 15.0 15.0 15.0 15.0 15.0 15.0 15.0 15.0 15.0 15.0 15.0 15.0 15.0 15.0 15.0 15.0
15.0 15.0 15.0 15.0 15.0 15.0 15.0 15.0 15.0 15.0 15.0 15.0 15.0 15.0 15.0 15.0 15.0 15.0 15.0 15.0 15.0 15.0 15.0 15.0 15.0 15.0 15.0 15.0 15.0 15.0 15.0 15.0 15.0 15.0 15.0 15.0 15.0 15.0 15.0 15.0 15.0 15.0 15.0
15.0 15.0 15.0 15.0 15.0 15.0 15.0 15.0 15.0 15.0 15.0 15.0 15.0 15.0 15.0 15.0 15.0 15.0 15.0 15.0 15.0 15.0 15.0 15.0 15.0 15.0 15.0 15.0 15.0 15.0 15.0 15.0 15.0 15.0 15.0 15.0 15.0 15.0 15.0 15.0 15.0 15.0 15.0
15.0 15.0 15.0 15.0 15.0 15.0 15.0 15.0 15.0 15.0 15.0 15.0 15.0 15.0 15.0 15.0 15.0 15.0 15.0 15.0 15.0 15.0 15.0 15.0 15.0 15.0 15.0 15.0 15.0 15.0 15.0 15.0 15.0 15.0 15.0 15.0 15.0 15.0 15.0 15.0 15.0 15.0 15.0
15.0 15.0 15.0 15.0 15.0 15.0 15.0 15.0 15.0 15.0 15.0 15.0 15.0 15.0 15.0 15.0 15.0 15.0 15.0 15.0 15.0 15.0 15.0 15.0 15.0 15.0 15.0 15.0 15.0 15.0 15.0 15.0 15.0 15.0 15.0 15.0 15.0 15.0 15.0 15.0 15.0 15.0 15.0
15.0 15.0 15.0 15.0 15.0 15.0 15.0 15.0 15.0 15.0 15.0 15.0 15.0 15.0 15.0 15.0 15.0 15.0 15.0 15.0 15.0 15.0 15.0 15.0 15.0 15.0 15.0 15.0 15.0 15.0 15.0 15.0 15.0 15.0 15.0 15.0 15.0 15.0 15.0 15.0 15.0 15.0 15.0
15.0 15.0 15.0 15.0 15.0 15.0 15.0 15.0 15.0 15.0 15.0 15.0 15.0 15.0 15.0 15.0 15.0 15.0 15.0 15.0 15.0 15.0 15.0 15.0 15.0 15.0 15.0 15.0 15.0 15.0 15.0 15.0 15.0 15.0 15.0 15.0 15.0 15.0 15.0 15.0 15.0 15.0 15.0

GFSGL_sfc_vis_030.txt.gz
Visibility
15.0 15.0 15.0 15.0 15.0 15.0 12.4 15.0 15.0 15.0 15.0 15.0 3.6 15.0 9.1 5.1 6.1 15.0 11.4 11.1 15.0 15.0 15.0 15.0 15.0 15.0 6.7 2.0 10.8 2.8 15.0 9.7 2.1 0.0 0.0 0.2 3.3 15.0 10.3 3.5 15.0 3.0 0.3
15.0 15.0 15.0 15.0 15.0 6.2 5.8 14.6 15.0 15.0 15.0 15.0 15.0 15.0 5.1 14.5 11.1 8.4 3.7 14.5 10.7 15.0 15.0 15.0 5.3 5.6 14.1 15.0 15.0 15.0 14.4 11.2 0.1 0.0 0.0 0.1 0.3 13.6 3.8 0.6 0.2 2.8 5.5
15.0 15.0 15.0 15.0 4.3 15.0 15.0 15.0 15.0 15.0 15.0 15.0 15.0 15.0 15.0 5.7 15.0 15.0 15.0 14.0 15.0 6.4 3.1 3.6 7.4 2.5 12.6 12.5 12.6 15.0 15.0 14.9 15.0 3.7 0.1 6.5 0.3 1.6 0.2 3.6 0.4 5.3 8.8
15.0 15.0 15.0 15.0 15.0 15.0 15.0 11.3 15.0 15.0 15.0 15.0 15.0 12.8 15.0 15.0 15.0 15.0 15.0 15.0 15.0 7.6 12.6 15.0 6.5 9.8 15.0 13.8 15.0 14.6 10.7 5.5 7.0 6.7 7.4 2.9 1.6 0.6 13.4 0.3 0.1 6.5 4.6
15.0 15.0 15.0 15.0 15.0 15.0 10.5 14.4 15.0 15.0 15.0 15.0 6.6 15.0 15.0 15.0 15.0 15.0 15.0 15.0 15.0 14.0 11.7 15.0 13.7 12.9 1.1 9.6 10.9 15.0 10.0 5.9 5.7 15.0 7.2 2.8 0.1 7.1 5.0 4.5 8.9 7.7 7.7
15.0 15.0 15.0 15.0 15.0 15.0 8.3 9.2 15.0 15.0 15.0 15.0 15.0 15.0 15.0 15.0 5.2 15.0 0.2 14.9 15.0 3.0 15.0 15.0 15.0 12.1 0.1 1.3 15.0 11.8 14.3 9.7 8.7 15.0 15.0 15.0 7.7 15.0 15.0 15.0 15.0 15.0 15.0
15.0 15.0 15.0 15.0 15.0 15.0 11.5 14.9 11.9 10.6 13.7 14.4 15.0 15.0 15.0 15.0 1.5 6.0 10.9 15.0 15.0 15.0 13.6 15.0 15.0 15.0 15.0 12.4 2.2 15.0 10.5 10.2 13.1 15.0 15.0 14.9 15.0 14.8 15.0 15.0 15.0 15.0 15.0
15.0 15.0 15.0 15.0 15.0 15.0 15.0 9.1 15.0 15.0 8.9 10.6 7.8 15.0 15.0 14.0 0.7 0.0 0.0 10.6 6.2 7.7 10.4 15.0 15.0 15.0 6.9 15.0 15.0 15.0 13.0 13.6 15.0 15.0 15.0 15.0 15.0 15.0 15.0 15.0 15.0 15.0 15.0
15.0 15.0 15.0 15.0 15.0 15.0 10.1 14.9 15.0 4.6 5.6 3.3 7.3 15.0 15.0 14.8 0.0 0.0 0.1 15.0 6.6 11.1 7.7 15.0 15.0 15.0 0.1 4.4 15.0 0.2 0.1 0.1 0.1 0.1 0.1 0.1 6.1 15.0 15.0 15.0 15.0 15.0 15.0
15.0 15.0 15.0 15.0 15.0 15.0 8.0 15.0 4.4 10.8 15.0 7.0 10.8 15.0 15.0 15.0 0.0 0.0 0.1 15.0 15.0 15.0 15.0 15.0 0.7 13.7 0.5 6.3 15.0 15.0 0.0 0.1 0.4 0.1 0.1 1.4 1.5 15.0 5.4 7.9 15.0 15.0 15.0
15.0 15.0 15.0 15.0 15.0 15.0 12.5 15.0 15.0 13.3 15.0 15.0 15.0 15.0 15.0 15.0 6.6 0.0 0.0 15.0 15.0 15.0 15.0 15.0 12.8 0.2 15.0 7.5 15.0 15.0 9.1 15.0 4.4 15.0 15.0 15.0 15.0 15.0 15.0 15.0 14.4 15.0 15.0
15.0 15.0 15.0 15.0 15.0 15.0 15.0 15.0 14.4 15.0 15.0 15.0 15.0 15.0 15.0 15.0 0.3 0.0 0.0 0.9 9.6 15.0 15.0 15.0 8.1 9.8 0.4 15.0 12.1 0.0 0.1 8.4 15.0 15.0 15.0 15.0 15.0 15.0 15.0 13.1 15.0 15.0 15.0
15.0 15.0 15.0 15.0 15.0 15.0 15.0 15.0 15.0 15.0 15.0 15.0 12.7 15.0 15.0 15.0 14.5 0.0 0.0 0.0 0.1 15.0 15.0 1.3 0.0 15.0 2.0 2.1 0.0 0.1 0.0 15.0 15.0 15.0 15.0 15.0 15.0 15.0 15.0 15.0 15.0 15.0 15.0
15.0 15.0 15.0 15.0 15.0 15.0 15.0 15.0 15.0 15.0 15.0 15.0 15.0 15.0 15.0 15.0 15.0 15.0 15.0 13.4 15.0 15.0 2.5 1.4 12.6 15.0 12.6 9.3 1.5 2.5 15.0 15.0 15.0 15.0 15.0 15.0 15.0 15.0 15.0 15.0 15.0 15.0 15.0
15.0 15.0 15.0 15.0 15.0 15.0 15.0 15.0 15.0 15.0 14.6 15.0 15.0 15.0 15.0 15.0 15.0 15.0 15.0 15.0 15.0 10.8 15.0 15.0 15.0 15.0 15.0 15.0 15.0 15.0 15.0 15.0 15.0 15.0 15.0 15.0 15.0 15.0 15.0 15.0 15.0 15.0 15.0
15.0 15.0 15.0 15.0 15.0 15.0 15.0 15.0 0.2 15.0 15.0 15.0 15.0 15.0 15.0 15.0 15.0 15.0 15.0 15.0 15.0 15.0 14.7 15.0 15.0 15.0 15.0 15.0 15.0 15.0 15.0 15.0 15.0 15.0 15.0 15.0 15.0 15.0 15.0 15.0 15.0 15.0 15.0
15.0 15.0 15.0 15.0 15.0 15.0 15.0 15.0 15.0 0.2 11.1 15.0 15.0 15.0 15.0 15.0 15.0 15.0 15.0 15.0 15.0 0.2 15.0 15.0 15.0 15.0 15.0 15.0 15.0 15.0 15.0 15.0 15.0 15.0 15.0 15.0 15.0 15.0 15.0 15.0 15.0 15.0 15.0
15.0 15.0 15.0 15.0 15.0 15.0 15.0 15.0 15.0 15.0 15.0 15.0 2.2 9.1 12.7 15.0 15.0 15.0 15.0 15.0 10.5 7.4 15.0 15.0 15.0 15.0 15.0 15.0 15.0 15.0 15.0 15.0 15.0 15.0 15.0 15.0 15.0 15.0 15.0 15.0 15.0 15.0 15.0
15.0 15.0 15.0 15.0 15.0 15.0 15.0 15.0 15.0 15.0 15.0 15.0 15.0 15.0 1.5 8.7 7.5 15.0 7.7 15.0 15.0 15.0 15.0 15.0 15.0 15.0 15.0 15.0 15.0 15.0 15.0 15.0 15.0 15.0 15.0 15.0 15.0 15.0 15.0 15.0 15.0 15.0 15.0
15.0 15.0 15.0 15.0 15.0 15.0 15.0 15.0 15.0 15.0 15.0 15.0 15.0 15.0 15.0 11.6 15.0 15.0 15.0 15.0 15.0 15.0 15.0 15.0 15.0 15.0 15.0 15.0 15.0 15.0 15.0 15.0 15.0 15.0 15.0 15.0 15.0 15.0 15.0 15.0 15.0 15.0 15.0
15.0 15.0 15.0 15.0 15.0 15.0 15.0 15.0 15.0 15.0 15.0 15.0 15.0 15.0 15.0 15.0 15.0 15.0 15.0 15.0 15.0 15.0 15.0 15.0 15.0 15.0 15.0 15.0 15.0 15.0 15.0 15.0 15.0 15.0 15.0 15.0 15.0 15.0 15.0 15.0 15.0 15.0 15.0
15.0 15.0 15.0 15.0 15.0 15.0 15.0 15.0 15.0 15.0 15.0 15.0 15.0 15.0 15.0 15.0 15.0 15.0 15.0 15.0 15.0 15.0 15.0 15.0 15.0 15.0 15.0 15.0 15.0 15.0 15.0 15.0 15.0 15.0 15.0 15.0 15.0 15.0 15.0 15.0 15.0 15.0 15.0
15.0 15.0 15.0 15.0 15.0 15.0 15.0 15.0 15.0 15.0 15.0 15.0 15.0 15.0 15.0 15.0 15.0 15.0 15.0 15.0 15.0 15.0 15.0 15.0 15.0 15.0 15.0 15.0 15.0 15.0 15.0 15.0 15.0 15.0 15.0 15.0 15.0 15.0 15.0 15.0 15.0 15.0 15.0
15.0 15.0 15.0 15.0 15.0 15.0 15.0 15.0 15.0 15.0 15.0 15.0 15.0 15.0 15.0 15.0 15.0 15.0 15.0 15.0 15.0 15.0 15.0 15.0 15.0 15.0 15.0 15.0 15.0 15.0 15.0 15.0 15.0 15.0 15.0 15.0 15.0 15.0 15.0 15.0 15.0 15.0 15.0
15.0 15.0 15.0 15.0 15.0 15.0 15.0 15.0 15.0 15.0 15.0 15.0 15.0 15.0 15.0 15.0 15.0 15.0 15.0 15.0 15.0 15.0 15.0 15.0 15.0 15.0 15.0 15.0 15.0 15.0 15.0 15.0 15.0 15.0 15.0 15.0 15.0 15.0 15.0 15.0 15.0 15.0 15.0
15.0 15.0 15.0 15.0 15.0 15.0 15.0 15.0 15.0 15.0 15.0 15.0 15.0 15.0 15.0 15.0 15.0 15.0 15.0 15.0 15.0 15.0 15.0 15.0 15.0 15.0 15.0 15.0 15.0 15.0 15.0 15.0 15.0 15.0 15.0 15.0 15.0 15.0 15.0 15.0 15.0 15.0 15.0

GFSGL_sfc_vis_033.txt.gz
Visibility
15.0 15.0 15.0 15.0 15.0 15.0 15.0 15.0 15.0 15.0 15.0 15.0 15.0 15.0 15.0 15.0 11.8 15.0 15.0 14.5 15.0 15.0 15.0 15.0 15.0 15.0 15.0 15.0 15.0 15.0 15.0 15.0 0.3 0.0 1.9 0.1 0.2 0.1 7.5 11.2 15.0 11.0 5.9
15.0 15.0 15.0 15.0 15.0 15.0 15.0 15.0 15.0 15.0 15.0 15.0 15.0 15.0 15.0 15.0 15.0 15.0 15.0 15.0 5.7 15.0 15.0 15.0 15.0 15.0 15.0 15.0 9.4 15.0 15.0 15.0 0.4 0.0 0.1 0.1 0.3 14.1 13.0 0.3 2.5 15.0 8.0
15.0 15.0 15.0 15.0 15.0 15.0 15.0 15.0 15.0 15.0 15.0 15.0 15.0 15.0 15.0 15.0 15.0 15.0 15.0 14.2 15.0 15.0 15.0 15.0 11.4 15.0 12.7 8.2 15.0 1.5 2.6 11.1 2.1 0.1 0.0 0.4 0.1 0.6 0.3 1.1 0.3 1.5 11.2
15.0 15.0 15.0 15.0 15.0 15.0 15.0 15.0 15.0 15.0 15.0 15.0 15.0 15.0 15.0 15.0 15.0 15.0 15.0 15.0 10.9 15.0 15.0 15.0 15.0 15.0 15.0 15.0 15.0 10.8 9.8 0.3 7.1 0.1 0.1 0.1 2.6 0.6 8.9 0.3 0.1 4.3 0.1
15.0 15.0 15.0 15.0 15.0 15.0 15.0 15.0 15.0 15.0 15.0 15.0 15.0 15.0 15.0 15.0 15.0 15.0 15.0 15.0 13.8 1.1 4.2 15.0 15.0 12.8 8.6 15.0 9.2 0.9 7.5 8.3 14.1 15.0 0.6 1.5 0.2 2.7 2.7 6.3 0.1 0.4 6.4
15.0 15.0 15.0 15.0 15.0 15.0 11.5 15.0 15.0 15.0 15.0 15.0 15.0 15.0 15.0 15.0 5.4 15.0 0.1 15.0 15.0 15.0 15.0 15.0 9.0 0.4 0.2 14.6 10.4 8.3 9.2 14.5 15.0 15.0 14.1 4.7 8.7 10.0 8.3 15.0 0.9 15.0 2.4
15.0 15.0 15.0 15.0 15.0 15.0 15.0 15.0 15.0 15.0 15.0 15.0 15.0 15.0 15.0 15.0 0.0 0.0 0.0 15.0 15.0 15.0 15.0 15.0 15.0 15.0 15.0 12.7 0.6 15.0 5.2 8.8 15.0 15.0 15.0 15.0 15.0 15.0 15.0 12.6 15.0 15.0 15.0
15.0 15.0 15.0 15.0 15.0 15.0 15.0 15.0 15.0 15.0 15.0 15.0 15.0 15.0 15.0 0.1 0.0 0.0 0.0 15.0 15.0 15.0 15.0 15.0 11.9 12.0 7.0 15.0 15.0 15.0 14.9 15.0 15.0 15.0 15.0 15.0 15.0 15.0 15.0 15.0 15.0 15.0 15.0
15.0 15.0 15.0 15.0 15.0 15.0 15.0 15.0 15.0 15.0 15.0 15.0 15.0 15.0 15.0 11.6 0.0 0.0 0.1 15.0 15.0 15.0 15.0 15.0 15.0 15.0 0.1 10.5 15.0 15.0 0.2 0.1 0.1 2.8 0.7 15.0 15.0 15.0 15.0 15.0 15.0 15.0 15.0
15.0 15.0 15.0 15.0 15.0 15.0 15.0 15.0 15.0 15.0 15.0 15.0 15.0 15.0 4.1 14.1 0.1 0.0 0.1 15.0 5.8 0.5 15.0 15.0 0.3 1.2 0.1 3.8 15.0 15.0 0.2 0.1 0.3 0.9 15.0 1.8 10.5 0.2 14.0 15.0 15.0 15.0 15.0
15.0 15.0 15.0 15.0 15.0 15.0 15.0 15.0 15.0 15.0 15.0 15.0 15.0 15.0 15.0 15.0 0.0 0.0 0.0 15.0 15.0 15.0 15.0 13.0 0.2 0.1 0.1 1.2 15.0 15.0 9.2 15.0 5.5 15.0 15.0 15.0 15.0 15.0 15.0 15.0 15.0 15.0 15.0
15.0 15.0 15.0 15.0 15.0 15.0 15.0 15.0 15.0 15.0 15.0 15.0 15.0 15.0 15.0 14.1 0.0 0.0 0.0 9.3 9.5 15.0 15.0 15.0 6.0 0.1 0.1 0.1 6.2 0.0 0.1 7.6 15.0 15.0 15.0 15.0 15.0 15.0 15.0 15.0 15.0 15.0 15.0
15.0 15.0 15.0 15.0 15.0 15.0 15.0 15.0 15.0 15.0 15.0 15.0 15.0 15.0 13.0 14.9 0.1 0.0 0.0 0.1 14.1 15.0 15.0 1.5 7.6 0.1 0.1 0.0 0.0 0.1 1.1 15.0 15.0 15.0 15.0 15.0 15.0 15.0 15.0 15.0 15.0 15.0 15.0
15.0 15.0 15.0 15.0 15.0 15.0 15.0 15.0 15.0 15.0 15.0 15.0 15.0 15.0 15.0 15.0 15.0 15.0 4.5 2.5 1.5 1.2 2.5 2.4 1.3 2.6 0.2 0.3 0.1 0.3 15.0 15.0 15.0 15.0 15.0 15.0 15.0 15.0 15.0 15.0 15.0 15.0 15.0
15.0 15.0 15.0 15.0 15.0 15.0 15.0 8.7 15.0 15.0 15.0 15.0 15.0 15.0 15.0 15.0 15.0 15.0 15.0 15.0 15.0 2.0 15.0 15.0 15.0 15.0 0.2 0.1 12.3 15.0 15.0 15.0 15.0 15.0 15.0 15.0 15.0 15.0 15.0 15.0 15.0 15.0 15.0
15.0 15.0 15.0 15.0 15.0 15.0 15.0 15.0 8.7 7.1 15.0 15.0 15.0 15.0 15.0 15.0 7.1 15.0 15.0 15.0 0.1 0.2 15.0 15.0 15.0 15.0 11.6 15.0 15.0 15.0 15.0 15.0 15.0 15.0 15.0 15.0 15.0 15.0 15.0 15.0 15.0 15.0 15.0
15.0 15.0 15.0 15.0 15.0 15.0 15.0 15.0 15.0 14.8 15.0 15.0 15.0 15.0 15.0 14.6 15.0 15.0 15.0 3.6 0.2 0.1 15.0 15.0 15.0 15.0 15.0 15.0 15.0 15.0 15.0 15.0 15.0 15.0 15.0 15.0 15.0 15.0 4.3 15.0 15.0 15.0 15.0
15.0 15.0 15.0 15.0 15.0 15.0 15.0 15.0 15.0 15.0 15.0 15.0 3.7 13.4 15.0 15.0 15.0 15.0 12.8 3.6 3.7 7.4 15.0 15.0 15.0 15.0 15.0 15.0 15.0 15.0 15.0 15.0 15.0 15.0 15.0 15.0 15.0 15.0 15.0 15.0 15.0 15.0 15.0
15.0 15.0 15.0 15.0 15.0 15.0 15.0 15.0 15.0 15.0 15.0 15.0 15.0 15.0 0.1 0.9 12.6 15.0 8.8 15.0 15.0 15.0 15.0 15.0 15.0 15.0 15.0 15.0 15.0 15.0 15.0 15.0 15.0 15.0 15.0 15.0 15.0 15.0 15.0 15.0 15.0 15.0 15.0
15.0 15.0 15.0 15.0 15.0 15.0 15.0 15.0 15.0 15.0 15.0 15.0 15.0 15.0 15.0 11.6 15.0 15.0 11.9 15.0 15.0 15.0 15.0 15.0 15.0 15.0 15.0 15.0 15.0 15.0 15.0 15.0 15.0 15.0 15.0 15.0 15.0 15.0 15.0 15.0 15.0 15.0 15.0
15.0 15.0 15.0 15.0 15.0 15.0 15.0 15.0 15.0 15.0 15.0 15.0 15.0 15.0 15.0 15.0 15.0 15.0 15.0 15.0 15.0 15.0 15.0 15.0 15.0 15.0 15.0 15.0 15.0 15.0 15.0 15.0 15.0 15.0 15.0 15.0 15.0 15.0 15.0 15.0 15.0 15.0 15.0
15.0 15.0 15.0 15.0 15.0 15.0 15.0 15.0 15.0 15.0 15.0 15.0 15.0 15.0 15.0 15.0 15.0 15.0 15.0 15.0 15.0 15.0 15.0 15.0 15.0 15.0 15.0 15.0 15.0 15.0 15.0 15.0 15.0 15.0 15.0 15.0 15.0 15.0 15.0 15.0 15.0 15.0 15.0
14.7 15.0 15.0 15.0 15.0 15.0 15.0 15.0 15.0 15.0 15.0 15.0 15.0 15.0 15.0 15.0 15.0 15.0 15.0 15.0 15.0 15.0 15.0 15.0 15.0 15.0 15.0 15.0 15.0 15.0 15.0 15.0 15.0 15.0 15.0 15.0 15.0 15.0 15.0 15.0 15.0 15.0 15.0
15.0 15.0 15.0 15.0 15.0 15.0 15.0 15.0 15.0 15.0 15.0 15.0 15.0 15.0 15.0 15.0 15.0 15.0 15.0 15.0 15.0 15.0 15.0 15.0 15.0 15.0 15.0 15.0 15.0 15.0 15.0 15.0 15.0 15.0 15.0 15.0 15.0 15.0 15.0 15.0 15.0 15.0 15.0
15.0 15.0 15.0 14.3 13.8 15.0 15.0 15.0 15.0 15.0 15.0 15.0 15.0 15.0 15.0 15.0 15.0 15.0 15.0 15.0 15.0 15.0 15.0 15.0 15.0 15.0 15.0 15.0 15.0 15.0 15.0 15.0 15.0 15.0 15.0 15.0 15.0 15.0 15.0 15.0 15.0 15.0 15.0
15.0 11.7 15.0 15.0 15.0 13.2 15.0 15.0 15.0 15.0 15.0 15.0 15.0 15.0 15.0 15.0 15.0 15.0 15.0 15.0 15.0 15.0 15.0 15.0 15.0 15.0 15.0 15.0 15.0 15.0 15.0 15.0 15.0 15.0 15.0 15.0 15.0 15.0 15.0 15.0 15.0 15.0 15.0

GFSGL_sfc_vis_036.txt.gz
Visibility
15.0 15.0 15.0 15.0 15.0 15.0 15.0 15.0 15.0 15.0 15.0 15.0 15.0 15.0 15.0 15.0 15.0 15.0 14.6 15.0 15.0 15.0 15.0 15.0 15.0 5.6 15.0 15.0 15.0 15.0 15.0 14.3 6.2 0.0 0.1 0.1 0.1 0.1 0.2 15.0 15.0 15.0 14.8
15.0 15.0 15.0 15.0 15.0 15.0 15.0 15.0 15.0 15.0 15.0 15.0 15.0 15.0 15.0 15.0 15.0 15.0 15.0 15.0 15.0 15.0 15.0 15.0 15.0 15.0 5.5 15.0 15.0 15.0 15.0 15.0 15.0 0.0 0.0 0.1 0.1 13.3 15.0 12.2 3.7 5.0 5.3
15.0 15.0 15.0 15.0 15.0 15.0 15.0 15.0 15.0 15.0 15.0 15.0 15.0 15.0 15.0 15.0 15.0 15.0 15.0 15.0 15.0 15.0 15.0 15.0 15.0 15.0 0.1 4.6 15.0 15.0 15.0 15.0 15.0 0.1 0.0 0.3 0.3 12.5 1.3 7.0 2.1 1.9 2.8
15.0 15.0 15.0 15.0 15.0 15.0 15.0 15.0 15.0 15.0 15.0 15.0 15.0 15.0 15.0 15.0 15.0 15.0 15.0 7.6 12.8 15.0 15.0 15.0 11.0 15.0 1.1 0.2 0.7 0.3 7.3 8.1 15.0 0.4 0.1 0.1 0.9 0.8 9.0 0.1 0.1 8.2 0.1
15.0 15.0 15.0 15.0 15.0 15.0 15.0 15.0 15.0 15.0 15.0 15.0 15.0 15.0 15.0 15.0 15.0 15.0 15.0 15.0 0.4 0.3 15.0 15.0 14.5 15.0 15.0 15.0 15.0 2.5 10.7 0.1 0.1 7.0 0.4 0.1 0.1 0.4 3.5 9.6 0.3 0.2 0.8
15.0 15.0 15.0 15.0 15.0 15.0 15.0 15.0 15.0 15.0 15.0 15.0 15.0 15.0 15.0 15.0 0.1 0.1 0.1 15.0 5.4 15.0 15.0 0.7 0.2 11.2 0.3 1.6 14.9 10.7 15.0 8.6 9.2 15.0 5.8 0.4 10.4 5.4 4.9 12.0 0.5 3.1 0.1
15.0 15.0 15.0 15.0 15.0 15.0 15.0 15.0 15.0 15.0 15.0 15.0 15.0 15.0 15.0 15.0 0.0 0.0 0.0 15.0 15.0 15.0 2.5 0.2 9.9 0.7 4.9 0.3 0.1 3.3 9.0 12.3 15.0 13.0 15.0 15.0 15.0 14.5 5.8 6.9 7.1 13.1 15.0
15.0 15.0 15.0 15.0 15.0 15.0 15.0 15.0 15.0 15.0 15.0 15.0 15.0 15.0 15.0 0.1 0.0 0.0 0.0 15.0 15.0 15.0 15.0 15.0 0.8 7.0 6.9 15.0 15.0 15.0 8.3 15.0 10.3 7.9 14.4 14.4 6.9 7.7 10.0 15.0 15.0 15.0 15.0
15.0 15.0 15.0 15.0 15.0 15.0 15.0 15.0 15.0 15.0 15.0 15.0 15.0 15.0 15.0 11.6 0.0 0.0 0.1 14.3 2.9 0.1 12.0 15.0 10.4 15.0 0.1 15.0 15.0 0.7 0.3 0.1 0.1 3.8 0.4 8.0 9.3 15.0 15.0 15.0 15.0 15.0 15.0
15.0 15.0 15.0 15.0 15.0 15.0 15.0 15.0 15.0 15.0 15.0 15.0 15.0 15.0 3.2 1.2 0.0 0.0 0.1 1.6 0.2 0.2 12.9 12.0 0.3 2.1 0.1 15.0 15.0 15.0 0.1 0.2 2.0 1.0 9.4 2.3 15.0 15.0 10.9 15.0 15.0 15.0 15.0
15.0 15.0 15.0 15.0 15.0 15.0 15.0 15.0 15.0 15.0 15.0 13.6 15.0 15.0 15.0 0.4 0.0 0.0 0.0 15.0 12.5 15.0 6.8 0.2 0.1 0.0 0.1 12.8 15.0 15.0 9.1 15.0 5.3 15.0 15.0 15.0 15.0 15.0 15.0 15.0 15.0 15.0 15.0
15.0 15.0 15.0 15.0 15.0 15.0 15.0 15.0 15.0 15.0 15.0 15.0 15.0 4.6 14.2 0.1 0.1 0.0 0.0 1.8 4.5 15.0 15.0 15.0 0.1 0.0 0.1 0.1 0.3 0.0 0.1 15.0 15.0 15.0 15.0 12.4 15.0 15.0 15.0 15.0 15.0 15.0 15.0
15.0 15.0 15.0 15.0 15.0 15.0 15.0 15.0 15.0 15.0 15.0 0.4 1.7 0.1 0.2 0.1 0.0 0.0 0.1 0.0 5.7 15.0 15.0 1.4 0.0 0.0 0.0 0.0 0.0 0.1 2.7 15.0 15.0 15.0 15.0 15.0 15.0 15.0 15.0 15.0 15.0 15.0 15.0
15.0 15.0 15.0 15.0 15.0 15.0 15.0 15.0 15.0 15.0 15.0 15.0 0.4 0.6 3.9 0.1 0.0 9.2 5.1 0.1 1.0 0.1 0.3 0.1 0.1 0.1 0.1 0.6 1.4 2.5 15.0 15.0 15.0 15.0 15.0 15.0 15.0 15.0 15.0 15.0 15.0 15.0 15.0
15.0 15.0 15.0 15.0 9.9 15.0 8.9 8.7 15.0 15.0 15.0 15.0 15.0 15.0 15.0 0.3 4.0 12.4 15.0 15.0 15.0 0.7 6.3 15.0 0.2 0.1 0.0 0.1 12.7 15.0 15.0 15.0 15.0 15.0 15.0 15.0 15.0 15.0 15.0 15.0 15.0 15.0 15.0
15.0 15.0 15.0 15.0 15.0 15.0 15.0 15.0 13.0 15.0 15.0 15.0 15.0 15.0 15.0 4.8 0.0 0.0 0.5 0.2 0.0 0.1 15.0 2.7 0.2 0.1 10.5 0.5 10.7 15.0 15.0 0.3 15.0 15.0 15.0 15.0 15.0 15.0 15.0 15.0 15.0 15.0 15.0
15.0 15.0 15.0 15.0 15.0 15.0 15.0 15.0 15.0 15.0 11.2 15.0 0.7 15.0 15.0 0.3 0.0 0.0 0.0 0.0 0.0 0.0 15.0 15.0 2.3 15.0 15.0 15.0 15.0 15.0 15.0 15.0 15.0 15.0 15.0 15.0 15.0 15.0 0.0 15.0 15.0 15.0 15.0
15.0 15.0 15.0 15.0 15.0 15.0 15.0 15.0 15.0 15.0 15.0 15.0 2.9 1.3 15.0 0.1 0.1 0.0 0.0 0.5 0.1 7.4 15.0 15.0 15.0 15.0 15.0 15.0 15.0 15.0 15.0 15.0 15.0 15.0 15.0 15.0 15.0 15.0 15.0 15.0 15.0 15.0 15.0
15.0 15.0 15.0 15.0 15.0 15.0 15.0 15.0 15.0 15.0 15.0 15.0 15.0 11.3 0.0 0.0 0.1 0.1 0.0 15.0 15.0 15.0 15.0 15.0 15.0 15.0 15.0 15.0 15.0 15.0 15.0 15.0 15.0 15.0 15.0 15.0 15.0 15.0 15.0 15.0 15.0 7.9 15.0
15.0 15.0 15.0 15.0 15.0 15.0 15.0 15.0 15.0 15.0 15.0 15.0 15.0 15.0 0.1 1.7 15.0 5.0 0.1 15.0 15.0 15.0 15.0 15.0 15.0 15.0 15.0 15.0 15.0 15.0 15.0 15.0 15.0 15.0 15.0 15.0 15.0 15.0 15.0 15.0 15.0 15.0 15.0
15.0 15.0 15.0 15.0 15.0 15.0 15.0 15.0 15.0 15.0 15.0 15.0 15.0 14.7 15.0 15.0 15.0 15.0 15.0 15.0 15.0 15.0 15.0 15.0 15.0 15.0 15.0 15.0 15.0 15.0 15.0 15.0 15.0 15.0 15.0 15.0 15.0 15.0 15.0 15.0 15.0 15.0 15.0
14.8 13.2 15.0 15.0 15.0 15.0 15.0 15.0 15.0 15.0 15.0 15.0 15.0 9.5 2.4 15.0 15.0 15.0 15.0 15.0 15.0 15.0 15.0 15.0 15.0 15.0 15.0 15.0 15.0 15.0 15.0 15.0 15.0 15.0 15.0 15.0 15.0 15.0 15.0 15.0 15.0 15.0 15.0
15.0 10.5 15.0 15.0 15.0 15.0 15.0 15.0 15.0 15.0 15.0 15.0 15.0 15.0 13.9 15.0 15.0 15.0 15.0 15.0 15.0 15.0 15.0 15.0 15.0 15.0 15.0 15.0 15.0 15.0 15.0 15.0 15.0 15.0 15.0 15.0 15.0 15.0 15.0 15.0 15.0 15.0 15.0
5.6 15.0 15.0 15.0 15.0 15.0 15.0 15.0 15.0 15.0 15.0 15.0 15.0 15.0 15.0 15.0 15.0 15.0 15.0 15.0 15.0 15.0 15.0 15.0 15.0 15.0 15.0 15.0 15.0 15.0 15.0 15.0 15.0 15.0 15.0 15.0 15.0 15.0 15.0 15.0 15.0 15.0 15.0
15.0 15.0 15.0 14.8 15.0 15.0 15.0 15.0 15.0 15.0 15.0 15.0 15.0 15.0 15.0 15.0 15.0 15.0 15.0 15.0 15.0 15.0 15.0 15.0 15.0 15.0 15.0 15.0 15.0 15.0 15.0 15.0 15.0 15.0 15.0 15.0 15.0 15.0 15.0 15.0 15.0 15.0 15.0
11.2 15.0 15.0 9.8 11.5 12.2 15.0 15.0 15.0 15.0 15.0 15.0 15.0 15.0 15.0 15.0 15.0 15.0 15.0 15.0 15.0 15.0 15.0 15.0 15.0 15.0 15.0 15.0 15.0 15.0 15.0 15.0 15.0 15.0 15.0 15.0 15.0 15.0 15.0 15.0 15.0 15.0 15.0

GFSGL_sfc_vis_042.txt.gz
Visibility
15.0 15.0 15.0 15.0 15.0 15.0 15.0 15.0 15.0 15.0 15.0 15.0 15.0 15.0 15.0 15.0 15.0 15.0 15.0 15.0 14.5 15.0 15.0 15.0 15.0 15.0 15.0 9.5 15.0 15.0 15.0 15.0 12.2 0.1 0.1 0.1 0.0 0.0 0.1 0.2 0.3 0.1 1.2
15.0 15.0 15.0 15.0 15.0 15.0 15.0 15.0 15.0 15.0 15.0 15.0 15.0 15.0 15.0 15.0 15.0 15.0 15.0 15.0 15.0 15.0 15.0 14.9 14.8 15.0 11.1 15.0 15.0 15.0 15.0 15.0 15.0 0.1 0.1 0.0 0.0 0.1 0.1 0.1 0.2 8.3 5.9
15.0 15.0 15.0 15.0 15.0 15.0 15.0 15.0 15.0 15.0 15.0 15.0 15.0 15.0 15.0 15.0 15.0 15.0 15.0 15.0 14.7 15.0 5.9 15.0 15.0 15.0 12.1 10.5 15.0 14.6 15.0 15.0 15.0 15.0 0.1 0.1 0.1 3.7 0.2 12.1 1.4 0.3 14.7
15.0 15.0 15.0 15.0 15.0 15.0 15.0 15.0 15.0 15.0 15.0 15.0 15.0 15.0 15.0 15.0 15.0 15.0 15.0 15.0 15.0 15.0 15.0 15.0 15.0 15.0 15.0 13.7 15.0 15.0 10.0 15.0 15.0 1.0 0.0 0.1 0.1 5.8 13.7 0.5 0.1 2.9 0.0
15.0 15.0 15.0 15.0 15.0 15.0 15.0 15.0 15.0 15.0 15.0 15.0 15.0 15.0 15.0 15.0 15.0 10.9 15.0 15.0 15.0 11.7 13.4 15.0 14.7 14.1 15.0 14.3 15.0 15.0 15.0 15.0 15.0 0.9 0.9 0.0 0.0 0.2 0.6 15.0 0.2 0.2 0.1
15.0 15.0 15.0 15.0 15.0 15.0 15.0 15.0 15.0 15.0 15.0 15.0 15.0 15.0 15.0 15.0 0.0 0.1 0.1 15.0 14.9 15.0 2.8 0.4 1.7 11.2 0.7 15.0 15.0 15.0 15.0 15.0 15.0 15.0 0.8 0.1 10.0 15.0 15.0 15.0 0.6 1.3 0.1
15.0 15.0 15.0 15.0 15.0 15.0 15.0 15.0 15.0 15.0 15.0 15.0 15.0 15.0 15.0 14.0 0.0 0.0 0.0 15.0 15.0 15.0 0.2 0.2 0.2 0.3 3.0 15.0 2.3 15.0 15.0 15.0 15.0 15.0 14.0 15.0 0.5 15.0 15.0 15.0 15.0 12.6 1.2
15.0 15.0 15.0 15.0 15.0 15.0 15.0 15.0 15.0 15.0 15.0 15.0 15.0 15.0 15.0 0.1 0.0 0.0 0.0 15.0 12.1 15.0 15.0 14.7 1.7 0.1 0.4 2.4 13.2 15.0 15.0 15.0 15.0 15.0 15.0 15.0 15.0 15.0 15.0 15.0 12.0 8.3 14.6
15.0 15.0 15.0 15.0 15.0 15.0 15.0 15.0 15.0 15.0 15.0 15.0 15.0 15.0 15.0 0.0 0.0 0.0 0.0 13.8 14.1 0.3 15.0 7.1 8.5 0.1 0.0 0.1 1.6 0.1 0.1 0.1 1.4 15.0 6.1 0.3 0.2 0.6 15.0 14.7 13.3 15.0 15.0
15.0 15.0 15.0 15.0 15.0 15.0 15.0 15.0 15.0 15.0 15.0 15.0 15.0 15.0 0.1 0.0 0.0 0.0 0.7 15.0 0.1 0.1 0.3 0.2 0.1 0.1 0.0 0.3 10.0 0.1 0.0 0.1 0.1 0.1 0.1 0.1 1.4 1.4 7.7 14.4 15.0 15.0 15.0
15.0 15.0 15.0 15.0 15.0 15.0 15.0 15.0 15.0 15.0 15.0 15.0 15.0 15.0 2.1 0.1 0.1 0.0 0.1 15.0 5.5 0.4 0.1 0.1 0.1 0.1 0.1 0.1 3.7 15.0 0.1 14.5 0.9 7.9 0.5 0.4 15.0 15.0 10.6 14.7 15.0 15.0 15.0
15.0 15.0 15.0 15.0 15.0 15.0 15.0 15.0 15.0 15.0 15.0 15.0 5.8 0.7 12.3 0.2 0.0 0.0 0.0 0.1 0.1 15.0 0.2 0.2 0.1 0.1 0.1 0.1 2.0 0.1 0.1 6.2 15.0 15.0 14.3 12.0 15.0 15.0 15.0 15.0 15.0 15.0 15.0
15.0 15.0 15.0 15.0 15.0 15.0 15.0 15.0 0.4 15.0 15.0 15.0 0.3 13.4 11.0 0.3 0.1 0.0 0.0 0.0 0.1 15.0 15.0 1.4 0.1 0.0 0.0 0.0 0.0 0.1 13.5 15.0 15.0 15.0 15.0 15.0 15.0 15.0 15.0 15.0 15.0 15.0 15.0
15.0 15.0 15.0 15.0 12.9 15.0 15.0 15.0 1.4 0.1 15.0 15.0 15.0 15.0 15.0 0.1 0.0 0.2 0.1 2.5 0.1 0.1 0.1 0.1 0.1 0.1 0.2 0.5 1.4 2.5 15.0 15.0 15.0 15.0 15.0 15.0 15.0 15.0 15.0 15.0 15.0 15.0 15.0
15.0 15.0 15.0 3.0 7.7 12.5 8.6 8.9 15.0 12.8 13.6 15.0 15.0 15.0 15.0 7.1 0.1 1.0 0.1 15.0 12.5 0.1 0.1 0.2 0.1 0.1 0.1 15.0 15.0 15.0 15.0 15.0 15.0 15.0 15.0 15.0 15.0 15.0 15.0 15.0 15.0 15.0 15.0
15.0 15.0 10.7 15.0 15.0 0.8 0.2 0.2 0.0 0.0 0.0 0.0 0.1 15.0 15.0 0.0 0.0 0.0 0.0 0.0 0.0 0.0 0.3 0.1 0.0 0.1 0.1 15.0 15.0 15.0 15.0 0.2 15.0 15.0 15.0 15.0 15.0 15.0 15.0 15.0 15.0 15.0 15.0
15.0 15.0 15.0 13.2 15.0 14.8 15.0 15.0 15.0 0.8 0.1 0.0 0.0 0.0 0.0 0.0 0.0 0.0 0.0 0.0 0.0 0.1 0.1 0.3 0.2 0.1 0.3 15.0 15.0 15.0 15.0 15.0 15.0 15.0 15.0 15.0 15.0 15.0 0.4 15.0 15.0 15.0 15.0
15.0 1.5 15.0 15.0 15.0 15.0 15.0 15.0 15.0 15.0 15.0 15.0 0.0 0.0 0.0 0.0 0.0 0.0 0.0 0.0 0.1 6.3 15.0 15.0 15.0 15.0 15.0 15.0 15.0 15.0 15.0 15.0 15.0 15.0 15.0 15.0 15.0 15.0 15.0 15.0 15.0 15.0 15.0
15.0 15.0 15.0 15.0 14.4 8.1 15.0 15.0 15.0 15.0 15.0 8.6 0.0 0.0 0.1 0.0 0.0 0.0 0.0 7.8 7.7 15.0 15.0 15.0 15.0 15.0 15.0 15.0 15.0 15.0 15.0 15.0 12.1 15.0 15.0 15.0 15.0 15.0 15.0 15.0 9.7 0.0 0.1
15.0 15.0 12.0 15.0 14.5 15.0 15.0 15.0 15.0 15.0 15.0 15.0 8.6 0.1 0.0 0.1 0.0 0.0 0.1 9.7 15.0 15.0 15.0 15.0 15.0 15.0 15.0 15.0 15.0 15.0 15.0 11.6 0.5 15.0 15.0 15.0 15.0 15.0 15.0 15.0 15.0 15.0 0.5
15.0 15.0 0.3 13.1 15.0 15.0 15.0 15.0 15.0 15.0 15.0 15.0 15.0 7.1 0.0 5.5 3.5 1.2 0.7 0.7 15.0 15.0 15.0 15.0 15.0 15.0 15.0 15.0 15.0 15.0 15.0 15.0 15.0 15.0 15.0 15.0 15.0 15.0 15.0 15.0 15.0 15.0 15.0
15.0 15.0 15.0 15.0 15.0 15.0 15.0 15.0 15.0 15.0 15.0 15.0 15.0 9.5 0.0 0.5 15.0 15.0 15.0 15.0 15.0 15.0 15.0 15.0 15.0 15.0 15.0 15.0 15.0 15.0 15.0 15.0 15.0 15.0 15.0 15.0 15.0 15.0 15.0 15.0 15.0 15.0 15.0
15.0 15.0 15.0 15.0 15.0 0.1 8.9 15.0 15.0 15.0 15.0 15.0 15.0 11.7 0.0 0.2 15.0 15.0 15.0 15.0 15.0 15.0 15.0 15.0 15.0 15.0 15.0 15.0 15.0 15.0 15.0 15.0 15.0 15.0 15.0 15.0 15.0 15.0 15.0 15.0 15.0 15.0 15.0
15.0 15.0 15.0 15.0 15.0 15.0 15.0 15.0 15.0 8.8 15.0 15.0 15.0 15.0 15.0 15.0 15.0 15.0 15.0 15.0 15.0 15.0 15.0 15.0 15.0 15.0 15.0 15.0 15.0 15.0 15.0 15.0 15.0 15.0 15.0 15.0 15.0 12.7 15.0 15.0 15.0 15.0 15.0
15.0 3.7 3.0 14.8 15.0 15.0 15.0 15.0 15.0 15.0 15.0 15.0 15.0 15.0 15.0 15.0 15.0 15.0 15.0 15.0 15.0 15.0 15.0 15.0 15.0 15.0 15.0 15.0 15.0 15.0 15.0 15.0 15.0 13.4 15.0 15.0 15.0 15.0 15.0 15.0 15.0 15.0 15.0
15.0 5.0 4.8 8.3 15.0 15.0 15.0 15.0 15.0 15.0 15.0 15.0 15.0 15.0 15.0 15.0 15.0 15.0 15.0 15.0 15.0 15.0 15.0 15.0 15.0 15.0 15.0 15.0 15.0 15.0 15.0 15.0 9.9 15.0 15.0 15.0 15.0 15.0 15.0 15.0 15.0 15.0 15.0